Port Hope, MI

5:51 AM EDT on September 21, 2017 (GMT -0400)
Port Hope

Weather History for KP58 - December, 2013

Change the Weather History Date:

Sunday, December 22, 2013

  Actual Average Record
Temperature  
Mean Temperature 30 °F -  
Max Temperature 32 °F 30 °F 50 °F (2006)
Min Temperature 27 °F 20 °F -2 °F (2000)
Degree Days  
Heating Degree Days 36    
Moisture  
Dew Point 26 °F    
Average Humidity 87    
Maximum Humidity 92    
Minimum Humidity 81    
Precipitation  
Precipitation 0.33 in - - ()
Sea Level Pressure  
Sea Level Pressure 29.78 in    
Wind  
Wind Speed 21 mph (NE)    
Max Wind Speed 31 mph    
Max Gust Speed 38 mph    
Averages and records for this station are not official NWS values.
T = Trace of Precipitation, MM = Missing Value Source: NWS Daily Summary

Daily Weather History Graph

Daily Weather History Graph

Search for Another Location

Airport or City:

Trip Planner

Search our weather history database for the weather conditions in past years. The results will help you decide how hot, cold, wet, or windy it might be!

Date:

Astronomy

Dec. 22, 2013 Rise Set
Actual Time 8:03 AM EST 4:56 PM EST
Civil Twilight 7:30 AM EST 5:29 PM EST
Nautical Twilight 6:53 AM EST 6:06 PM EST
Astronomical Twilight 6:18 AM EST 6:41 PM EST
Moon 10:18 PM EST (12/22) 10:49 AM EST (12/22)
Length of Visible Light 9h 59m
Length of Day
8h 53m
Waning Gibbous, 77% of the Moon is Illuminated
Dec 22
Waning Gibbous
Dec 25
Last Quarter
Jan 1
New
Jan 7
First Quarter
Jan 15
Full

Hourly Weather History & Observations

Time (EST) Temp. Windchill Dew Point Humidity Pressure Visibility Wind Dir Wind Speed Gust Speed Precip Events Conditions
12:51 AM 30.9 °F 16.9 °F 28.9 °F 92% 29.76 in - ENE 26.5 mph 33.4 mph 0.05 in   Unknown
1:51 AM 30.9 °F 16.9 °F 28.9 °F 92% 29.73 in - NE 26.5 mph - 0.04 in   Unknown
2:51 AM 32.0 °F 18.1 °F 28.0 °F 85% 29.70 in - NE 27.6 mph 35.7 mph 0.01 in   Unknown
3:51 AM 32.0 °F 18.4 °F 28.9 °F 88% 29.72 in - NE 26.5 mph 33.4 mph 0.01 in   Unknown
4:51 AM 32.0 °F 18.6 °F 28.9 °F 88% 29.71 in - ENE 25.3 mph - 0.02 in   Unknown
5:51 AM 30.9 °F 16.9 °F 28.9 °F 92% 29.70 in - ENE 26.5 mph 33.4 mph 0.06 in   Unknown
6:51 AM 30.9 °F 16.7 °F 28.0 °F 89% 29.68 in - NE 27.6 mph 34.5 mph 0.06 in   Unknown
7:51 AM 30.0 °F 14.7 °F 28.0 °F 92% 29.68 in - NE 31.1 mph 38.0 mph 0.03 in   Unknown
8:51 AM 30.0 °F 15.7 °F 28.0 °F 92% 29.67 in - ENE 26.5 mph 34.5 mph 0.02 in   Unknown
9:51 AM 30.9 °F 17.5 °F 28.0 °F 89% 29.67 in - East 24.2 mph 31.1 mph N/A   Unknown
10:51 AM 30.0 °F 17.5 °F 28.0 °F 92% 29.70 in - East 19.6 mph - N/A   Unknown
11:51 AM 30.0 °F 19.1 °F 28.0 °F 92% 29.68 in - NE 15.0 mph - 0.01 in   Unknown
12:51 PM 30.0 °F 22.4 °F 27.0 °F 88% 29.68 in - ENE 8.1 mph - N/A   Unknown
1:51 PM 30.9 °F 24.3 °F 28.0 °F 89% 29.71 in - North 6.9 mph - 0.02 in   Unknown
2:51 PM 30.9 °F 21.7 °F 28.0 °F 89% 29.75 in - North 11.5 mph 18.4 mph N/A   Unknown
3:51 PM 30.0 °F 18.7 °F 25.0 °F 82% 29.78 in - North 16.1 mph 24.2 mph N/A   Unknown
4:51 PM 28.9 °F 20.4 °F 24.1 °F 82% 29.86 in - North 9.2 mph - N/A   Unknown
5:51 PM 28.9 °F 19.8 °F 24.1 °F 82% 29.89 in - North 10.4 mph 16.1 mph N/A   Unknown
6:51 PM 28.0 °F 19.3 °F 23.0 °F 81% 29.91 in - North 9.2 mph - N/A   Unknown
7:51 PM 28.0 °F 19.3 °F 23.0 °F 81% 29.94 in - North 9.2 mph - N/A   Unknown
8:51 PM 27.0 °F 17.3 °F 21.9 °F 81% 29.95 in - NNE 10.4 mph - N/A   Unknown
9:51 PM 27.0 °F 18.7 °F 21.9 °F 81% 29.96 in - North 8.1 mph - N/A   Unknown
10:51 PM 27.0 °F 21.6 °F 23.0 °F 85% 29.98 in - North 4.6 mph - N/A   Unknown
11:51 PM 27.0 °F 18.7 °F 23.0 °F 85% 29.99 in - North 8.1 mph - N/A   Unknown